| time (UTC) | temp C | wind direction | speed KPH | gust KPH | rain 1hr cm | rain 24hr cm | rain mn cm | humidity % | barometer mb |
| 20260505084843 | 16 | 148 | 0.0 | 6.4 | 0.00 | 0.00 | 0.00 | 56 | 1017.9 |
| 20260505084243 | 17 | 0 | 0.0 | 0.0 | 0.00 | 0.00 | 0.00 | 57 | 1017.8 |
| 20260505083643 | 17 | 0 | 0.0 | 0.0 | 0.00 | 0.00 | 0.00 | 57 | 1017.6 |
| 20260505081843 | 18 | 0 | 0.0 | 0.0 | 0.00 | 0.00 | 0.00 | 54 | 1017.2 |
| 20260505081243 | 18 | 0 | 0.0 | 0.0 | 0.00 | 0.00 | 0.00 | 53 | 1017.1 |
| 20260505080644 | 18 | 0 | 0.0 | 0.0 | 0.00 | 0.00 | 0.00 | 53 | 1017.1 |
| 20260505080042 | 19 | 0 | 0.0 | 0.0 | 0.00 | 0.00 | 0.00 | 52 | 1016.9 |
| 20260505074844 | 20 | 0 | 0.0 | 0.0 | 0.00 | 0.00 | 0.00 | 49 | 1016.7 |
| 20260505074243 | 20 | 0 | 0.0 | 0.0 | 0.00 | 0.00 | 0.00 | 48 | 1016.6 |
| 20260505073643 | 20 | 0 | 0.0 | 0.0 | 0.00 | 0.00 | 0.00 | 47 | 1016.4 |
| 20260505073044 | 20 | 0 | 0.0 | 0.0 | 0.00 | 0.00 | 0.00 | 47 | 1016.2 |
| 20260505072443 | 21 | 0 | 0.0 | 0.0 | 0.00 | 0.00 | 0.00 | 47 | 1016.3 |
| 20260505071842 | 21 | 0 | 0.0 | 0.0 | 0.00 | 0.00 | 0.00 | 47 | 1016.2 |
| 20260505071243 | 21 | 0 | 0.0 | 0.0 | 0.00 | 0.00 | 0.00 | 46 | 1016.1 |
| 20260505070644 | 22 | 0 | 0.0 | 0.0 | 0.00 | 0.00 | 0.00 | 46 | 1016.0 |
| 20260505065444 | 22 | 0 | 0.0 | 0.0 | 0.00 | 0.00 | 0.00 | 45 | 1015.9 |
| 20260505064842 | 22 | 0 | 0.0 | 0.0 | 0.00 | 0.00 | 0.00 | 45 | 1015.7 |
| 20260505064244 | 23 | 0 | 0.0 | 0.0 | 0.00 | 0.00 | 0.00 | 44 | 1015.7 |
| 20260505063643 | 23 | 0 | 0.0 | 0.0 | 0.00 | 0.00 | 0.00 | 44 | 1015.5 |
| 20260505063043 | 23 | 0 | 0.0 | 0.0 | 0.00 | 0.00 | 0.00 | 43 | 1015.6 |
| 20260505062443 | 23 | 0 | 0.0 | 0.0 | 0.00 | 0.00 | 0.00 | 42 | 1015.5 |
| 20260505061843 | 23 | 0 | 0.0 | 0.0 | 0.00 | 0.00 | 0.00 | 42 | 1015.5 |
| 20260505061244 | 24 | 0 | 0.0 | 0.0 | 0.00 | 0.00 | 0.00 | 42 | 1015.5 |
| 20260505060643 | 24 | 0 | 0.0 | 0.0 | 0.00 | 0.00 | 0.00 | 42 | 1015.5 |
| 20260505060042 | 24 | 0 | 0.0 | 0.0 | 0.00 | 0.00 | 0.00 | 42 | 1015.4 |
| 20260505055443 | 24 | 0 | 0.0 | 0.0 | 0.00 | 0.00 | 0.00 | 40 | 1015.4 |
| 20260505054843 | 24 | 0 | 0.0 | 0.0 | 0.00 | 0.00 | 0.00 | 40 | 1015.3 |
| 20260505054244 | 25 | 0 | 0.0 | 0.0 | 0.00 | 0.00 | 0.00 | 41 | 1015.3 |
| 20260505053644 | 25 | 0 | 0.0 | 0.0 | 0.00 | 0.00 | 0.00 | 39 | 1015.3 |
| 20260505053042 | 25 | 0 | 0.0 | 0.0 | 0.00 | 0.00 | 0.00 | 40 | 1015.3 |
| 20260505052444 | 25 | 181 | 1.6 | 6.4 | 0.00 | 0.00 | 0.00 | 40 | 1015.4 |
| 20260505051243 | 25 | 143 | 1.6 | 6.4 | 0.00 | 0.00 | 0.00 | 41 | 1015.4 |
| 20260505050643 | 25 | 144 | 0.0 | 6.4 | 0.00 | 0.00 | 0.00 | 40 | 1015.4 |
| 20260505041243 | 24 | 229 | 1.6 | 4.8 | 0.00 | 0.00 | 0.00 | 43 | 1015.0 |
| 20260505040643 | 24 | 253 | 1.6 | 4.8 | 0.00 | 0.00 | 0.00 | 42 | 1014.9 |
| 20260505040042 | 24 | 237 | 0.0 | 4.8 | 0.00 | 0.00 | 0.00 | 42 | 1015.0 |
| 20260505035442 | 24 | 218 | 0.0 | 4.8 | 0.00 | 0.00 | 0.00 | 44 | 1014.9 |
| 20260505034844 | 24 | 266 | 0.0 | 4.8 | 0.00 | 0.00 | 0.00 | 44 | 1014.9 |
| 20260505034243 | 23 | 244 | 1.6 | 4.8 | 0.00 | 0.00 | 0.00 | 45 | 1014.9 |
| 20260505033642 | 23 | 236 | 1.6 | 4.8 | 0.00 | 0.00 | 0.00 | 44 | 1014.9 |
| 20260505033043 | 23 | 190 | 1.6 | 4.8 | 0.00 | 0.00 | 0.00 | 45 | 1015.0 |
| 20260505032443 | 23 | 232 | 1.6 | 4.8 | 0.00 | 0.00 | 0.00 | 46 | 1015.0 |
| 20260505031842 | 23 | 245 | 1.6 | 6.4 | 0.00 | 0.00 | 0.00 | 46 | 1015.1 |
| 20260505031243 | 23 | 257 | 0.0 | 6.4 | 0.00 | 0.00 | 0.00 | 45 | 1015.1 |
| 20260505030642 | 23 | 276 | 1.6 | 6.4 | 0.00 | 0.00 | 0.00 | 46 | 1015.1 |
| 20260505025444 | 22 | 264 | 3.2 | 6.4 | 0.00 | 0.00 | 0.00 | 47 | 1015.4 |
| 20260505024843 | 22 | 260 | 4.8 | 9.7 | 0.00 | 0.00 | 0.00 | 46 | 1015.4 |
| 20260505024243 | 22 | 254 | 4.8 | 9.7 | 0.00 | 0.00 | 0.00 | 47 | 1015.3 |
| 20260505023643 | 22 | 269 | 4.8 | 9.7 | 0.00 | 0.00 | 0.00 | 48 | 1015.5 |
| 20260505023043 | 22 | 274 | 4.8 | 14.5 | 0.00 | 0.00 | 0.00 | 48 | 1015.5 |
| 20260505022443 | 21 | 258 | 4.8 | 14.5 | 0.00 | 0.00 | 0.00 | 49 | 1015.6 |
| 20260505021843 | 21 | 253 | 4.8 | 12.9 | 0.00 | 0.00 | 0.00 | 49 | 1015.6 |
| 20260505021243 | 21 | 255 | 4.8 | 16.1 | 0.00 | 0.00 | 0.00 | 50 | 1015.7 |
| 20260505020642 | 21 | 252 | 4.8 | 16.1 | 0.00 | 0.00 | 0.00 | 50 | 1015.7 |
| 20260505020043 | 21 | 254 | 4.8 | 12.9 | 0.00 | 0.00 | 0.00 | 50 | 1015.8 |
| 20260505015444 | 21 | 256 | 4.8 | 14.5 | 0.00 | 0.00 | 0.00 | 50 | 1016.0 |
| 20260505014843 | 21 | 253 | 3.2 | 14.5 | 0.00 | 0.00 | 0.00 | 50 | 1016.1 |
| 20260505014243 | 21 | 259 | 3.2 | 8.0 | 0.00 | 0.00 | 0.00 | 51 | 1016.3 |
| 20260505013642 | 20 | 258 | 4.8 | 8.0 | 0.00 | 0.00 | 0.00 | 52 | 1016.4 |
| 20260505013042 | 20 | 268 | 4.8 | 8.0 | 0.00 | 0.00 | 0.00 | 52 | 1016.5 |
| 20260505012443 | 20 | 270 | 4.8 | 19.3 | 0.00 | 0.00 | 0.00 | 52 | 1016.5 |
| 20260505011843 | 20 | 269 | 4.8 | 19.3 | 0.00 | 0.00 | 0.00 | 53 | 1016.5 |
| 20260505011243 | 20 | 271 | 4.8 | 19.3 | 0.00 | 0.00 | 0.00 | 53 | 1016.6 |
| 20260505010643 | 20 | 276 | 4.8 | 19.3 | 0.00 | 0.00 | 0.00 | 53 | 1016.6 |
| 20260505010043 | 20 | 272 | 6.4 | 12.9 | 0.00 | 0.00 | 0.00 | 53 | 1016.8 |
| 20260505005443 | 20 | 284 | 6.4 | 22.5 | 0.00 | 0.00 | 0.00 | 54 | 1016.8 |
| 20260505004843 | 19 | 284 | 6.4 | 22.5 | 0.00 | 0.00 | 0.00 | 55 | 1017.0 |
| 20260505004243 | 19 | 277 | 3.2 | 19.3 | 0.00 | 0.00 | 0.00 | 55 | 1017.1 |
| 20260505003643 | 18 | 276 | 1.6 | 19.3 | 0.00 | 0.00 | 0.00 | 58 | 1017.1 |
| 20260505003042 | 18 | 260 | 3.2 | 6.4 | 0.00 | 0.00 | 0.00 | 60 | 1017.1 |
| 20260505001243 | 18 | 288 | 6.4 | 16.1 | 0.00 | 0.00 | 0.00 | 62 | 1017.1 |
| 20260505000643 | 17 | 281 | 6.4 | 19.3 | 0.00 | 0.00 | 0.00 | 64 | 1017.0 |
| 20260504235443 | 17 | 279 | 4.8 | 22.5 | 0.00 | 0.00 | 0.00 | 67 | 1017.3 |
| 20260504234843 | 16 | 298 | 4.8 | 12.9 | 0.00 | 0.00 | 0.00 | 69 | 1017.5 |
| 20260504234244 | 16 | 304 | 4.8 | 12.9 | 0.00 | 0.00 | 0.00 | 72 | 1017.5 |
| 20260504233043 | 15 | 317 | 4.8 | 14.5 | 0.00 | 0.00 | 0.00 | 79 | 1017.8 |
| 20260504232442 | 15 | 318 | 3.2 | 12.9 | 0.00 | 0.00 | 0.00 | 81 | 1017.8 |
| 20260504231843 | 14 | 315 | 3.2 | 8.0 | 0.00 | 0.00 | 0.00 | 84 | 1018.0 |
| 20260504231243 | 14 | 314 | 1.6 | 6.4 | 0.00 | 0.00 | 0.00 | 85 | 1018.1 |
| 20260504230643 | 13 | 321 | 1.6 | 6.4 | 0.00 | 0.00 | 0.00 | 85 | 1018.0 |
| 20260504230043 | 13 | 334 | 1.6 | 6.4 | 0.00 | 0.00 | 0.00 | 86 | 1018.1 |
| 20260504225443 | 13 | 326 | 0.0 | 6.4 | 0.00 | 0.00 | 0.00 | 86 | 1018.0 |
| 20260504224843 | 13 | 0 | 0.0 | 0.0 | 0.00 | 0.00 | 0.00 | 86 | 1018.1 |
| 20260504224242 | 13 | 0 | 0.0 | 0.0 | 0.00 | 0.00 | 0.00 | 86 | 1018.1 |
| 20260504223643 | 13 | 0 | 0.0 | 0.0 | 0.00 | 0.00 | 0.00 | 86 | 1017.9 |
| 20260504223043 | 13 | 0 | 0.0 | 0.0 | 0.00 | 0.00 | 0.00 | 86 | 1017.8 |
| 20260504222442 | 13 | 0 | 0.0 | 0.0 | 0.00 | 0.00 | 0.00 | 86 | 1017.8 |
| 20260504221843 | 12 | 0 | 0.0 | 0.0 | 0.00 | 0.00 | 0.00 | 86 | 1017.9 |
| 20260504221243 | 12 | 0 | 0.0 | 0.0 | 0.00 | 0.00 | 0.00 | 86 | 1017.9 |
| 20260504220643 | 12 | 0 | 0.0 | 0.0 | 0.00 | 0.00 | 0.00 | 86 | 1017.7 |
| 20260504220043 | 12 | 0 | 0.0 | 0.0 | 0.00 | 0.00 | 0.00 | 86 | 1017.7 |
| 20260504215442 | 12 | 0 | 0.0 | 0.0 | 0.00 | 0.00 | 0.00 | 86 | 1017.6 |
| 20260504214843 | 11 | 0 | 0.0 | 0.0 | 0.00 | 0.00 | 0.00 | 86 | 1017.4 |
| 20260504214243 | 11 | 0 | 0.0 | 0.0 | 0.00 | 0.00 | 0.00 | 86 | 1017.2 |
| 20260504213642 | 11 | 0 | 0.0 | 0.0 | 0.00 | 0.00 | 0.00 | 86 | 1016.9 |
| 20260504212442 | 11 | 0 | 0.0 | 0.0 | 0.00 | 0.00 | 0.00 | 85 | 1016.8 |
| 20260504211842 | 10 | 0 | 0.0 | 0.0 | 0.00 | 0.00 | 0.00 | 85 | 1016.7 |
| 20260504211242 | 10 | 0 | 0.0 | 0.0 | 0.00 | 0.00 | 0.00 | 85 | 1016.6 |
| 20260504210643 | 10 | 0 | 0.0 | 0.0 | 0.00 | 0.00 | 0.00 | 85 | 1016.5 |
| 20260504210043 | 11 | 0 | 0.0 | 0.0 | 0.00 | 0.00 | 0.00 | 84 | 1016.5 |
| 20260504205442 | 11 | 0 | 0.0 | 0.0 | 0.00 | 0.00 | 0.00 | 85 | 1016.4 |
| 20260504204842 | 11 | 0 | 0.0 | 0.0 | 0.00 | 0.00 | 0.00 | 85 | 1016.4 |
| 20260504203643 | 11 | 0 | 0.0 | 0.0 | 0.00 | 0.00 | 0.00 | 85 | 1016.0 |
| 20260504203043 | 11 | 0 | 0.0 | 0.0 | 0.00 | 0.00 | 0.00 | 85 | 1016.0 |
| 20260504202441 | 11 | 0 | 0.0 | 0.0 | 0.00 | 0.00 | 0.00 | 85 | 1015.9 |
| 20260504201842 | 11 | 0 | 0.0 | 0.0 | 0.00 | 0.00 | 0.00 | 85 | 1015.9 |
| 20260504201242 | 11 | 0 | 0.0 | 0.0 | 0.00 | 0.00 | 0.00 | 85 | 1015.9 |
| 20260504200042 | 11 | 0 | 0.0 | 0.0 | 0.00 | 0.00 | 0.00 | 85 | 1015.8 |
| 20260504195442 | 11 | 0 | 0.0 | 0.0 | 0.00 | 0.00 | 0.00 | 85 | 1015.7 |
| 20260504194843 | 11 | 0 | 0.0 | 0.0 | 0.00 | 0.00 | 0.00 | 85 | 1015.6 |
| 20260504194242 | 11 | 0 | 0.0 | 0.0 | 0.00 | 0.00 | 0.00 | 84 | 1015.6 |
| 20260504193043 | 11 | 0 | 0.0 | 0.0 | 0.00 | 0.00 | 0.00 | 85 | 1015.4 |
| 20260504192443 | 12 | 0 | 0.0 | 0.0 | 0.00 | 0.00 | 0.00 | 84 | 1015.3 |
| 20260504191243 | 12 | 0 | 0.0 | 0.0 | 0.00 | 0.00 | 0.00 | 85 | 1015.4 |
| 20260504190643 | 12 | 0 | 0.0 | 0.0 | 0.00 | 0.00 | 0.00 | 85 | 1015.4 |
| 20260504190043 | 12 | 0 | 0.0 | 0.0 | 0.00 | 0.00 | 0.00 | 84 | 1015.3 |
| 20260504185442 | 12 | 0 | 0.0 | 0.0 | 0.00 | 0.00 | 0.00 | 84 | 1015.3 |
| 20260504184843 | 12 | 0 | 0.0 | 0.0 | 0.00 | 0.00 | 0.00 | 84 | 1015.2 |
| 20260504184243 | 12 | 0 | 0.0 | 0.0 | 0.00 | 0.00 | 0.00 | 84 | 1015.2 |
| 20260504183042 | 13 | 0 | 0.0 | 0.0 | 0.00 | 0.00 | 0.00 | 85 | 1015.0 |
| 20260504182442 | 13 | 0 | 0.0 | 0.0 | 0.00 | 0.00 | 0.00 | 85 | 1015.0 |
| 20260504181842 | 13 | 0 | 0.0 | 0.0 | 0.00 | 0.00 | 0.00 | 84 | 1014.9 |
| 20260504180643 | 13 | 0 | 0.0 | 0.0 | 0.00 | 0.00 | 0.00 | 85 | 1014.8 |
| 20260504180043 | 13 | 0 | 0.0 | 0.0 | 0.00 | 0.00 | 0.00 | 85 | 1014.9 |
| 20260504175443 | 13 | 0 | 0.0 | 0.0 | 0.00 | 0.00 | 0.00 | 84 | 1014.8 |
| 20260504174842 | 13 | 0 | 0.0 | 0.0 | 0.00 | 0.00 | 0.00 | 84 | 1014.7 |
| 20260504174243 | 13 | 0 | 0.0 | 0.0 | 0.00 | 0.00 | 0.00 | 85 | 1014.7 |
| 20260504173642 | 13 | 0 | 0.0 | 0.0 | 0.00 | 0.00 | 0.00 | 85 | 1014.6 |
| 20260504173043 | 13 | 0 | 0.0 | 0.0 | 0.00 | 0.00 | 0.00 | 84 | 1014.6 |
| 20260504172442 | 14 | 0 | 0.0 | 0.0 | 0.00 | 0.00 | 0.00 | 84 | 1014.7 |
| 20260504171842 | 14 | 0 | 0.0 | 0.0 | 0.00 | 0.00 | 0.00 | 85 | 1014.7 |
| 20260504171243 | 14 | 0 | 0.0 | 0.0 | 0.00 | 0.00 | 0.00 | 85 | 1014.7 |
| 20260504170642 | 14 | 0 | 0.0 | 0.0 | 0.00 | 0.00 | 0.00 | 84 | 1014.7 |
| 20260504150643 | 16 | 0 | 0.0 | 0.0 | 0.00 | 0.00 | 0.00 | 85 | 1014.6 |
| 20260504141243 | 17 | 0 | 0.0 | 0.0 | 0.00 | 0.00 | 0.00 | 85 | 1014.5 |
| 20260504130643 | 17 | 0 | 0.0 | 0.0 | 0.00 | 0.00 | 0.00 | 84 | 1014.4 |